#timestamp,LO_Frequency,Hit,Temp,Hum 
1480100415.9,286047070.6,N,0.0,0.0
1480100435.7,286047072.9,N,0.0,0.0
1480100455.5,286047072.2,N,0.0,0.0
1480100475.4,286047072.2,N,0.0,0.0
1480100495.2,286047073.0,N,0.0,0.0
1480100515.1,286047072.8,N,0.0,0.0
1480100516.0,286047072.8,N,0.0,0.0
1480100535.8,286047072.9,N,0.0,0.0
1480100555.6,286047074.4,N,0.0,0.0
1480100575.5,286047076.4,N,0.0,0.0
1480100595.3,286047075.6,N,0.0,0.0
1480100615.1,286047075.5,N,0.0,0.0
1480100635.9,286047073.5,N,0.0,0.0
1480100655.7,286047072.4,N,0.0,0.0
1480100675.6,286047072.5,N,0.0,0.0
1480100695.4,286047072.5,N,0.0,0.0
1480100715.2,286047070.6,N,0.0,0.0
1480100735.1,286047069.3,N,0.0,0.0
1480100736.0,286047069.3,N,0.0,0.0
1480100755.8,286047066.5,N,0.0,0.0
1480100775.7,286047065.7,N,0.0,0.0
1480100795.5,286047067.7,N,0.0,0.0
1480100815.3,286047067.7,N,0.0,0.0
1480100835.2,286047068.2,N,0.0,0.0
1480100855.9,286047070.0,N,0.0,0.0
1480100875.7,286047068.2,N,0.0,0.0
1480100895.6,286047067.9,N,0.0,0.0
1480100915.4,286047067.1,N,0.0,0.0
1480100935.3,286047069.3,N,0.0,0.0
1480100955.1,286047071.2,N,0.0,0.0
1480100956.0,286047071.2,N,0.0,0.0
1480100975.8,286047073.1,N,0.0,0.0
1480100995.7,286047071.1,N,0.0,0.0
1480101015.5,286047071.3,N,0.0,0.0
1480101035.3,286047068.7,N,0.0,0.0
1480101055.2,286047067.3,N,0.0,0.0
1480101075.0,286047067.2,N,0.0,0.0
1480101075.9,286047067.2,N,0.0,0.0
1480101095.8,286047067.8,N,0.0,0.0
1480101115.6,286047067.4,N,0.0,0.0
1480101135.4,286047070.0,N,0.0,0.0
1480101155.3,286047065.3,N,0.0,0.0
1480101175.1,286047066.5,N,0.0,0.0
1480101195.9,286047064.1,N,0.0,0.0
1480101215.7,286047064.4,N,0.0,0.0
1480101235.5,286047063.9,N,0.0,0.0
1480101255.4,286047064.4,N,0.0,0.0
1480101275.2,286047062.2,N,0.0,0.0
1480101295.0,286047060.8,N,0.0,0.0
1480101295.9,286047060.8,N,0.0,0.0
1480101315.8,286047059.1,N,0.0,0.0
1480101335.6,286047059.2,N,0.0,0.0
1480101355.5,286047061.6,N,0.0,0.0
1480101375.3,286047059.9,N,0.0,0.0
1480101395.1,286047058.8,N,0.0,0.0
1480101415.9,286047058.6,N,0.0,0.0
1480101435.7,286047056.9,N,0.0,0.0
1480101455.5,286047056.7,N,0.0,0.0
1480101475.4,286047054.8,N,0.0,0.0
1480101495.2,286047052.6,N,0.0,0.0
1480101515.1,286047052.7,N,0.0,0.0
1480101516.0,286047052.7,N,0.0,0.0
1480101535.8,286047051.1,N,0.0,0.0
1480101555.6,286047051.9,N,0.0,0.0
1480101575.5,286047051.6,N,0.0,0.0
1480101595.3,286047053.9,N,0.0,0.0
1480101615.2,286047051.4,N,0.0,0.0
1480101635.9,286047051.7,N,0.0,0.0
1480101655.7,286047052.2,N,0.0,0.0
1480101675.6,286047049.8,N,0.0,0.0
1480101695.4,286047047.9,N,0.0,0.0
1480101715.2,286047048.9,N,0.0,0.0
1480101735.1,286047047.5,N,0.0,0.0
1480101736.0,286047047.5,N,0.0,0.0
1480101755.8,286047044.9,N,0.0,0.0
1480101775.7,286047044.8,N,0.0,0.0
1480101795.5,286047045.9,N,0.0,0.0
1480101815.3,286047043.7,N,0.0,0.0
1480101835.2,286047039.7,N,0.0,0.0
1480101855.0,286047040.7,N,0.0,0.0
1480101855.9,286047040.7,N,0.0,0.0
1480101875.8,286047039.1,N,0.0,0.0
1480101895.6,286047037.9,N,0.0,0.0
1480101915.4,286047035.7,N,0.0,0.0
1480101935.3,286047036.4,N,0.0,0.0
1480101955.1,286047033.6,N,0.0,0.0
1480101975.8,286047033.3,N,0.0,0.0
1480101995.7,286047033.8,N,0.0,0.0
1480102015.5,286047034.2,N,0.0,0.0
1480102035.4,286047032.4,N,0.0,0.0
1480102055.2,286047030.4,N,0.0,0.0
1480102075.0,286047028.8,N,0.0,0.0
1480102075.9,286047028.8,N,0.0,0.0
1480102095.8,286047029.9,N,0.0,0.0
1480102115.6,286047027.9,N,0.0,0.0
1480102135.5,286047025.7,N,0.0,0.0
1480102155.3,286047026.2,N,0.0,0.0
1480102175.1,286047023.7,N,0.0,0.0
1480102195.9,286047025.0,N,0.0,0.0
1480102215.7,286047022.6,N,0.0,0.0
1480102235.6,286047023.3,N,0.0,0.0
1480102255.4,286047023.0,N,0.0,0.0
1480102275.2,286047023.0,N,0.0,0.0
1480102295.1,286047023.1,N,0.0,0.0
1480102296.0,286047023.1,N,0.0,0.0
1480102315.8,286047020.7,N,0.0,0.0
1480102335.6,286047021.5,N,0.0,0.0
1480102355.5,286047019.1,N,0.0,0.0
1480102375.3,286047019.7,N,0.0,0.0
1480102395.2,286047020.1,N,0.0,0.0
1480102415.9,286047020.2,N,0.0,0.0
1480102435.7,286047019.7,N,0.0,0.0
1480102455.6,286047020.4,N,0.0,0.0
1480102475.4,286047017.9,N,0.0,0.0
1480102495.2,286047018.4,N,0.0,0.0
1480102515.1,286047016.6,N,0.0,0.0
1480102516.0,286047016.6,N,0.0,0.0
1480102535.8,286047017.2,N,0.0,0.0
1480102555.7,286047014.3,N,0.0,0.0
1480102575.5,286047015.5,N,0.0,0.0
1480102595.3,286047012.5,N,0.0,0.0
1480102615.2,286047013.2,N,0.0,0.0
1480102635.0,286047013.8,N,0.0,0.0
1480102635.9,286047013.8,N,0.0,0.0
1480102655.8,286047013.6,N,0.0,0.0
1480102675.6,286047013.7,N,0.0,0.0
1480102695.4,286047013.5,N,0.0,0.0
1480102715.3,286047013.5,N,0.0,0.0
1480102735.1,286047013.9,N,0.0,0.0
1480102755.8,286047011.3,N,0.0,0.0
1480102775.7,286047011.6,N,0.0,0.0
1480102795.5,286047009.8,N,0.0,0.0
1480102815.4,286047012.2,N,0.0,0.0
1480102835.2,286047011.2,N,0.0,0.0
1480102855.0,286047011.6,N,0.0,0.0
1480102855.9,286047011.6,N,0.0,0.0
1480102875.8,286047011.3,N,0.0,0.0
1480102895.6,286047009.4,N,0.0,0.0
1480102915.4,286047009.6,N,0.0,0.0
1480102935.3,286047009.5,N,0.0,0.0
1480102955.1,286047010.2,N,0.0,0.0
1480102975.9,286047007.8,N,0.0,0.0
1480102995.7,286047007.9,N,0.0,0.0
1480103015.5,286047008.6,N,0.0,0.0
1480103035.4,286047007.8,N,0.0,0.0
1480103055.2,286047010.8,N,0.0,0.0
1480103075.0,286047008.5,N,0.0,0.0
1480103076.0,286047008.5,N,0.0,0.0
1480103095.8,286047007.9,N,0.0,0.0
1480103115.6,286047007.9,N,0.0,0.0
1480103135.5,286047007.8,N,0.0,0.0
1480103155.3,286047007.9,N,0.0,0.0
1480103175.1,286047008.4,N,0.0,0.0
1480103195.9,286047008.2,N,0.0,0.0
1480103215.7,286047008.9,N,0.0,0.0
1480103235.6,286047006.1,N,0.0,0.0
1480103255.4,286047007.0,N,0.0,0.0
1480103275.2,286047004.5,N,0.0,0.0
1480103295.1,286047005.0,N,0.0,0.0
1480103296.0,286047005.0,N,0.0,0.0
1480103315.8,286047006.3,N,0.0,0.0
1480103335.7,286047006.2,N,0.0,0.0
1480103355.5,286047006.9,N,0.0,0.0
1480103375.3,286047006.4,N,0.0,0.0
1480103395.2,286047006.7,N,0.0,0.0
1480103415.0,286047006.7,N,0.0,0.0
1480103415.9,286047006.7,N,0.0,0.0
1480103435.8,286047006.5,N,0.0,0.0
1480103455.6,286047006.5,N,0.0,0.0
1480103475.4,286047008.6,N,0.0,0.0
1480103495.3,286047008.9,N,0.0,0.0
1480103515.1,286047008.5,N,0.0,0.0
1480103535.8,286047008.4,N,0.0,0.0
1480103555.7,286047007.9,N,0.0,0.0
1480103575.5,286047007.8,N,0.0,0.0
1480103595.4,286047010.4,N,0.0,0.0
1480103615.2,286047010.2,N,0.0,0.0
1480103635.0,286047010.4,N,0.0,0.0
1480103635.9,286047010.4,N,0.0,0.0
1480103655.8,286047010.4,N,0.0,0.0
1480103675.6,286047010.8,N,0.0,0.0
1480103695.4,286047010.1,N,0.0,0.0
1480103715.3,286047010.1,N,0.0,0.0
1480103735.1,286047010.0,N,0.0,0.0
1480103755.9,286047009.8,N,0.0,0.0
1480103775.7,286047009.9,N,0.0,0.0
1480103795.5,286047009.3,N,0.0,0.0
1480103815.4,286047012.1,N,0.0,0.0
1480103835.2,286047012.0,N,0.0,0.0
1480103855.0,286047012.1,N,0.0,0.0
1480103856.0,286047012.1,N,0.0,0.0
1480103875.8,286047012.2,N,0.0,0.0
1480103895.6,286047012.2,N,0.0,0.0
1480103915.5,286047013.7,N,0.0,0.0
1480103935.3,286047013.6,N,0.0,0.0
1480103955.1,286047011.4,N,0.0,0.0
1480103975.9,286047011.4,N,0.0,0.0
1480103995.7,286047011.1,N,0.0,0.0
